Location: Malvern Link
(52.1333°N, 2.3000°W)
Time: 16:00:56
(UTC+00:00)

SO-50 - Pass Details

Date: 10 July 2022
Orbit: 585 x 698 km, 64.6° (Epoch: 11 August)

Event Time Altitude Azimuth Distance (km) Brightness Sun altitude
Rises 02:19:41 0° 296° (WNW) 3,045 ? -10.8°
Reaches altitude 10° 02:22:38 10° 314° (NW) 2,146 ? -10.5°
Maximum altitude 02:26:08 19° 0° (N) 1,629 ? -10.3°
Drops below altitude 10° 02:29:40 10° 46° (NE) 2,167 ? -10.0°
Sets 02:32:41 0° 64° (ENE) 3,087 ? -9.7°
